Location: Unspecified
(0.0000°N, 0.0000°E)
Time: 14:39:51
(UTC+00:00)

deb Delta 126 - Pass Details

Date: 14 February 2026
Orbit: 1458 x 1580 km, 101.9° (Epoch: 6 March)

Event Time Altitude Azimuth Distance (km) Brightness Sun altitude
Rises 04:40:56 0° 352° (N) 4,740 ? -22.7°
Reaches altitude 10° 04:44:17 10° 342° (NNW) 3,766 ? -21.9°
Enters shadow 04:50:05 27° 302° (WNW) 2,662 ? -20.5°
Exits shadow 04:52:13 28° 280° (W) 2,621 ? -19.9°
Drops below altitude 10° 04:58:47 10° 232° (SW) 3,773 ? -18.3°
Sets 05:02:12 0° 221° (SW) 4,750 ? -17.5°
